CW0198 Weather Reports


Display with metric or nautical units.
time (UTC)temp
F
wind
direction
speed
MPH
gust
MPH
rain 1hr
in
rain 24hr
in
rain mn
in
humidity
%
barometer
mb
20260902124544 80 290 0.0 3.0 0.00 0.00 0.00 92 1016.9
20260902123102 78 284 0.0 2.0 0.00 0.00 0.00 94 1016.9
20260902121527 77 333 0.0 0.0 0.00 0.00 0.00 96 1017.0
20260902120049 76 285 0.0 0.0 0.00 0.00 0.00 97 1017.0
20260902114516 75 283 0.0 0.0 0.00 0.00 0.00 98 1016.9
20260902113043 74 236 0.0 0.0 0.00 0.00 0.00 98 1017.0
20260902111604 74 236 0.0 0.0 0.00 0.00 0.00 98 1017.0
20260902111503 74 236 0.0 0.0 0.00 0.00 0.00 98 1016.9
20260902110020 74 236 0.0 0.0 0.00 0.00 0.00 98 1016.8
20260902104552 74 236 0.0 0.0 0.00 0.00 0.00 98 1016.8
20260902103025 74 236 0.0 0.0 0.00 0.00 0.00 98 1016.9
20260902101530 74 236 0.0 0.0 0.00 0.00 0.00 97 1016.7
20260902100111 75 235 0.0 0.0 0.00 0.00 0.00 97 1016.7
20260902094516 75 219 0.0 0.0 0.00 0.00 0.00 97 1016.5
20260902093039 75 237 0.0 0.0 0.00 0.00 0.00 97 1016.3
20260902091600 75 222 0.0 0.0 0.00 0.00 0.00 97 1016.2
20260902091501 75 222 0.0 0.0 0.00 0.00 0.00 97 1016.4
20260902090029 75 214 0.0 0.0 0.00 0.00 0.00 97 1016.2
20260902084559 75 205 0.0 0.0 0.00 0.00 0.00 98 1016.3
20260902083017 75 218 0.0 0.0 0.00 0.00 0.00 97 1016.3
20260902081548 75 219 0.0 0.0 0.00 0.00 0.00 97 1016.3
20260902080005 76 219 0.0 0.0 0.00 0.00 0.00 96 1016.3
20260902074528 76 219 0.0 0.0 0.00 0.00 0.00 96 1016.4
20260902073055 76 203 0.0 0.0 0.00 0.00 0.00 96 1016.4
20260902071519 76 210 0.0 0.0 0.00 0.00 0.00 96 1016.3
20260902070039 77 210 0.0 2.0 0.00 0.00 0.00 95 1016.4
20260902064502 77 203 0.0 0.0 0.00 0.00 0.00 95 1016.5
20260902063023 77 212 0.0 0.0 0.00 0.00 0.00 95 1016.5
20260902061602 77 168 0.0 0.0 0.00 0.00 0.00 95 1016.6
20260902060009 77 210 0.0 0.0 0.00 0.00 0.00 95 1016.7
20260902054540 77 198 0.0 0.0 0.00 0.00 0.00 95 1016.7
20260902053102 77 221 0.0 0.0 0.00 0.00 0.00 94 1016.5
20260902051519 77 208 0.0 1.0 0.00 0.00 0.00 94 1016.4
20260902050041 77 195 0.0 0.0 0.00 0.00 0.00 93 1016.3
20260902044505 77 212 0.0 0.0 0.00 0.00 0.00 93 1016.2
20260902043025 78 169 0.0 0.0 0.00 0.00 0.00 92 1016.1
20260902041546 78 164 0.0 0.0 0.00 0.00 0.00 92 1016.1
20260902040015 78 158 0.0 0.0 0.00 0.00 0.00 90 1016.0
20260902034529 79 160 0.0 0.0 0.00 0.00 0.00 90 1016.1
20260902033100 79 160 0.0 0.0 0.00 0.00 0.00 89 1015.9
20260902031515 79 148 0.0 0.0 0.00 0.00 0.00 88 1015.8
20260902030041 79 149 0.0 0.0 0.00 0.00 0.00 88 1015.9
20260902024545 79 149 0.0 0.0 0.00 0.00 0.00 88 1015.8
20260902023010 80 149 0.0 0.0 0.00 0.00 0.00 87 1015.8
20260902021534 80 219 0.0 0.0 0.00 0.00 0.00 86 1015.7
20260902020059 81 219 0.0 0.0 0.00 0.00 0.00 85 1015.6
20260902014530 81 220 0.0 0.0 0.00 0.00 0.00 85 1015.3
20260902013047 81 219 0.0 0.0 0.00 0.00 0.00 84 1015.3
20260902011534 82 219 0.0 0.0 0.00 0.00 0.00 84 1015.2
20260902010045 82 155 0.0 0.0 0.00 0.00 0.00 85 1015.0
20260902004511 82 155 0.0 0.0 0.00 0.00 0.00 84 1015.0
20260902003045 83 155 0.0 0.0 0.00 0.00 0.00 83 1014.9
20260902001514 83 155 0.0 0.0 0.00 0.00 0.00 84 1014.9
20260902000031 84 155 0.0 0.0 0.00 0.00 0.00 83 1015.2
20260901234559 86 155 0.0 0.0 0.00 0.00 0.00 79 1015.2
20260901233015 88 155 0.0 0.0 0.00 0.00 0.00 74 1015.2
20260901231545 90 224 0.0 2.0 0.00 0.00 0.00 72 1015.3
20260901230007 92 217 1.0 3.0 0.00 0.00 0.00 68 1015.2
20260901224535 92 188 0.0 2.0 0.00 0.00 0.00 67 1015.4
20260901223002 93 165 1.0 3.0 0.00 0.00 0.00 65 1015.2
20260901221523 93 206 0.0 2.0 0.00 0.00 0.00 67 1015.4
20260901220044 93 207 1.0 3.0 0.00 0.00 0.00 66 1015.4
20260901214535 93 212 1.0 3.0 0.00 0.00 0.00 65 1015.4
20260901213032 96 196 1.0 4.0 0.00 0.00 0.00 57 1015.3
20260901211559 96 204 1.0 3.0 0.00 0.00 0.00 56 1015.2
20260901210029 96 257 0.0 4.0 0.00 0.00 0.00 56 1015.4
20260901204543 97 221 1.0 4.0 0.00 0.00 0.00 57 1015.3
20260901203007 96 328 0.0 3.0 0.00 0.00 0.00 56 1015.2
20260901201528 96 236 0.0 3.0 0.00 0.00 0.00 56 1015.4
20260901200058 96 257 1.0 5.0 0.00 0.00 0.00 56 1015.6
20260901194512 96 233 1.0 4.0 0.00 0.00 0.00 60 1015.7
20260901193035 95 234 2.0 4.0 0.00 0.00 0.00 56 1015.8
20260901191557 95 212 0.0 5.0 0.00 0.00 0.00 60 1015.9
20260901190026 96 235 0.0 6.0 0.00 0.00 0.00 60 1016.0
20260901184544 95 242 1.0 5.0 0.00 0.00 0.00 61 1016.2
20260901183010 94 297 2.0 4.0 0.00 0.00 0.00 60 1016.3
20260901181530 94 284 1.0 6.0 0.00 0.00 0.00 59 1016.4
20260901180051 94 278 1.0 4.0 0.00 0.00 0.00 60 1016.5
20260901174529 93 292 0.0 2.0 0.00 0.00 0.00 64 1016.5
20260901173044 93 244 0.0 5.0 0.00 0.00 0.00 62 1016.5
20260901171512 92 300 2.0 5.0 0.00 0.00 0.00 66 1016.6
20260901170030 93 293 1.0 5.0 0.00 0.00 0.00 67 1016.7
20260901164550 92 251 2.0 6.0 0.00 0.00 0.00 66 1016.8
20260901163015 91 226 0.0 4.0 0.00 0.00 0.00 68 1017.1
20260901161532 91 326 2.0 6.0 0.00 0.00 0.00 70 1017.3
20260901160046 90 300 1.0 6.0 0.00 0.00 0.00 68 1017.4
20260901154508 89 276 2.0 6.0 0.00 0.00 0.00 71 1017.7
20260901153029 89 8 0.0 5.0 0.00 0.00 0.00 72 1017.8
20260901151548 88 301 1.0 7.0 0.00 0.00 0.00 75 1017.9
20260901150015 88 296 0.0 5.0 0.00 0.00 0.00 75 1018.1
20260901144538 87 263 1.0 4.0 0.00 0.00 0.00 78 1018.1
20260901143057 86 288 1.0 6.0 0.00 0.00 0.00 76 1018.1
20260901143006 86 307 1.0 6.0 0.00 0.00 0.00 78 1018.1
20260901141522 86 231 0.0 4.0 0.00 0.00 0.00 79 1018.0
20260901140053 85 290 1.0 5.0 0.00 0.00 0.00 80 1017.9
20260901134501 83 289 0.0 3.0 0.00 0.00 0.00 83 1018.0
20260901133028 82 295 1.0 4.0 0.00 0.00 0.00 85 1018.1
20260901131548 81 322 1.0 5.0 0.00 0.00 0.00 87 1018.0
20260901130010 80 288 0.0 3.0 0.00 0.00 0.00 91 1017.9